Startseite
Über Mich
AHP4
Galerie
Sehschlangen
Tourenbuch
Bookmarks
Elektronik
Bewertung
Geschichten
[Tagesmessung] [Jahreswerte] [Information]

Messwerte vom 11.04.2022

Die letzten Messwerte von 23:58:46 Uhr:
KategorieMesswert
Temperatur [°C]2
Luftdruck [mBar]1002
Sonneneinstrahlung0
Wind [km/h]0 aus Nord
Niederschlag [l/m²]0
rel.Luftfeucht.82.4%
CO2 [ppm]727

Diagramme
Messwerte vom 11.04.2022
Tagesaggregation
KategorieMinimumMaximumSchnittSumme
Temperatur [°C]-3186.5583
Luftdruck [mBar]100010061003.0208
Sonneneinstrahlung247122.4354
Wind [km/h]13
rF [%]31.296.671.53
Niederschlag [l/m²]0.2575
CO2 [ppm]413852684.8
Einordnung alsFrosttag
Vegetationstag

Messungen an benachbarten Tagen: Zur Jahresaggregation 2022
Tabelle aller Messwerte
UhrzeitTemperatur [°C]Luftdruck [mBar]SonneWind [km/h]RichtungRegen [l/m²]rF [%]CO2 [ppm]
00:01:47 3 1004 0 0 S 0 96.6 738
00:04:47 3 1005 0 0 SO 0 96.6 739
00:07:49 3 1005 0 0 NW 0 96.6 741
00:10:48 3 1005 0 1 W 0 96.6 736
00:13:47 3 1005 0 3 W 0 96.6 733
00:16:46 3 1005 0 5 SW 0 96.6 731
00:19:46 3 1005 0 0 O 0 96.6 733
00:22:49 3 1004 0 0 SO 0 96.5 730
00:25:49 3 1004 0 0 SO 0 96.6 730
00:28:46 3 1004 0 3 S 0 96.6 733
00:31:49 3 1006 0 0 SO 0 96.6 729
00:34:47 3 1004 0 1 S 0 96.6 730
00:37:47 2 1005 0 0 SO 0 96.6 730
00:40:48 2 1005 0 0 SO 0 96.6 736
00:43:47 2 1005 0 0 SO 0 96.6 739
00:46:49 2 1004 0 0 S 0 96.6 744
00:49:48 2 1005 0 0 SO 0 96.6 736
00:52:47 2 1005 0 0 S 0 96.6 723
00:55:44 2 1004 0 0 S 0 96.6 716
00:58:47 2 1004 0 0 O 0 96.6 720
01:01:47 2 1004 0 0 SO 0 96.6 731
01:04:49 2 1004 0 0 SW 0.2575 96.6 732
01:07:44 1 1005 0 0 O 0 96.6 741
01:10:46 1 1004 0 0 O 0 96.6 733
01:13:46 1 1004 0 0 S 0 96.6 733
01:16:48 1 1004 0 0 NO 0 96.6 726
01:19:46 1 1005 0 0 S 0 96.6 729
01:22:48 1 1005 0 0 W 0 96.6 732
01:25:46 1 1004 0 0 W 0 96.6 736
01:28:47 1 1004 0 1 SO 0 96.6 727
01:31:47 1 1004 0 0 SO 0 96.6 727
01:34:48 1 1005 0 0 NW 0 96.6 721
01:37:49 0 1004 0 0 NW 0 96.6 713
01:40:47 0 1005 0 0 NW 0 96.6 709
01:43:47 0 1004 0 0 NW 0 96.6 706
01:46:47 0 1004 0 0 NW 0 96.6 710
01:49:50 0 1004 0 0 NW 0 96.6 709
01:52:46 0 1004 0 0 NW 0 96.6 709
01:55:46 0 1004 0 0 S 0 96.6 713
01:58:47 0 1004 0 0 S 0 96.6 715
02:01:46 0 1004 0 0 S 0 96.6 715
02:04:48 0 1004 0 0 S 0 96.6 702
02:07:48 0 1003 0 0 S 0 96.6 698
02:10:48 0 1004 0 0 S 0 96.6 692
02:13:47 0 1005 0 0 S 0 96.6 692
02:16:48 0 1005 0 0 S 0 96.6 695
02:19:46 -1 1005 0 0 S 0 96.6 695
02:22:46 -1 1005 0 0 S 0 96.6 695
02:25:48 -1 1004 0 0 S 0 96.6 686
02:28:46 -1 1004 0 0 S 0 96.6 697
02:31:48 -1 1005 0 0 S 0 96.6 692
02:34:49 -1 1004 0 0 NW 0 96.6 692
02:37:50 -1 1004 0 0 S 0 96.6 689
02:40:48 -1 1004 0 0 S 0 96.6 689
02:43:49 -1 1004 0 0 S 0 96.6 689
02:46:48 -1 1005 0 0 N 0 96.6 692
02:49:48 -1 1005 0 0 S 0 96.6 683
02:52:47 -1 1004 0 0 S 0 96.6 680
02:55:50 -1 1005 0 0 S 0 96.6 681
02:58:46 -1 1006 0 0 S 0 96.6 680
03:01:47 -1 1004 0 0 S 0 96.6 682
03:04:47 -1 1004 0 0 S 0 96.6 680
03:07:47 -1 1004 0 0 S 0 96.6 678
03:10:47 -1 1004 0 0 O 0 96.6 677
03:13:47 -1 1004 0 0 O 0 96.6 678
03:16:47 -1 1004 0 0 O 0 96.6 687
03:19:45 -1 1004 0 0 O 0 96.6 691
03:22:49 -1 1004 0 0 O 0 96.6 690
03:25:47 -1 1004 0 0 O 0 96.6 680
03:28:47 -1 1004 0 0 O 0 96.6 683
03:31:47 -1 1004 0 0 O 0 96.6 678
03:34:46 -1 1004 0 0 O 0 96.6 682
03:37:45 -1 1004 0 0 O 0 96.6 682
03:40:46 -2 1005 0 0 O 0 96.6 683
03:43:49 -2 1004 0 0 O 0 96.6 682
03:46:49 -2 1005 0 0 O 0 96.6 680
03:49:47 -2 1004 0 0 O 0 96.6 672
03:52:47 -2 1004 0 0 O 0 96.6 675
03:55:45 -2 1005 0 0 O 0 96.6 667
03:58:48 -2 1004 0 0 O 0 96.6 666
04:01:47 -2 1005 0 0 O 0 96.6 669
04:04:47 -2 1004 0 0 O 0 96.6 670
04:07:45 -2 1004 0 0 O 0 96.6 677
04:10:48 -2 1004 0 0 O 0 96.6 677
04:13:47 -2 1004 0 0 O 0 96.6 678
04:16:49 -2 1004 0 0 O 0 96.6 678
04:19:46 -2 1004 0 0 O 0 96.6 674
04:22:45 -2 1005 0 0 O 0 96.6 666
04:25:48 -2 1005 0 0 O 0 96.6 662
04:28:45 -2 1004 0 0 O 0 96.6 664
04:31:48 -2 1004 0 0 O 0 96.6 671
04:34:47 -2 1005 0 0 O 0 96.6 668
04:37:48 -2 1004 0 0 O 0 96.6 667
04:40:50 -2 1004 0 0 SO 0 96.6 666
04:43:48 -2 1004 0 0 NO 0 96.6 668
04:46:46 -2 1004 0 0 NO 0 96.6 665
04:49:48 -2 1003 0 0 NO 0 96.6 671
04:52:48 -2 1004 0 0 NO 0 96.6 663
04:55:48 -2 1004 0 0 NO 0 96.6 665
04:58:46 -2 1004 0 0 NO 0 96.6 665
05:01:48 -2 1004 0 0 SO 0 96.6 665
05:04:48 -2 1004 0 0 SO 0 96.6 664
05:07:48 -2 1004 0 0 NO 0 96.6 662
05:10:47 -2 1004 0 0 NO 0 96.6 664
05:13:46 -2 1003 0 0 NO 0 96.6 674
05:16:47 -2 1003 0 0 NO 0 96.6 669
05:19:49 -2 1004 0 0 NO 0 96.6 659
05:22:47 -2 1003 0 0 NO 0 96.6 656
05:25:47 -2 1003 0 0 NO 0 96.6 662
05:28:47 -2 1003 0 0 O 0 96.6 666
05:31:46 -2 1003 0 0 O 0 96.6 662
05:34:46 -2 1004 0 0 O 0 96.6 662
05:37:49 -2 1003 0 0 O 0 96.6 666
05:40:49 -3 1003 0 0 SO 0 96.6 663
05:43:48 -3 1003 0 0 SO 0 96.6 666
05:46:47 -3 1004 0 0 SO 0 96.6 663
05:49:49 -2 1004 0 0 SO 0 96.6 670
05:52:47 -2 1004 0 0 SO 0 96.6 665
05:55:51 -2 1003 0 0 SO 0 96.6 654
05:58:48 -3 1004 0 0 SO 0 96.6 651
06:01:50 -3 1004 0 0 SO 0 96.6 650
06:04:50 -3 1003 3 0 SO 0 96.6 651
06:07:48 -2 1004 6 0 SO 0 96.6 651
06:10:47 -2 1003 10 0 N 0 96.6 656
06:13:48 -2 1004 15 0 N 0 96.6 651
06:16:46 -2 1003 23 0 N 0 96.6 653
06:19:49 -2 1004 32 0 SO 0 96.6 656
06:22:50 -2 1003 43 0 SO 0 96.6 666
06:25:51 -2 1004 55 0 N 0 96.6 659
06:28:49 -2 1004 67 0 N 0 96.6 656
06:31:49 -2 1003 78 0 SO 0 96.6 653
06:34:50 -2 1003 85 0 SO 0 96.6 657
06:37:48 -2 1004 90 0 SO 0 96.6 661
06:40:50 -2 1004 96 0 SO 0 96.6 665
06:43:50 -2 1003 102 0 SO 0 96.6 659
06:46:48 -2 1003 107 0 SO 0 96.6 660
06:49:49 -2 1004 118 0 SO 0 96.6 658
06:52:47 -2 1003 126 0 SO 0 96.6 659
06:55:47 -1 1004 134 0 SO 0 96.6 659
06:58:49 -1 1004 139 0 SO 0 96.6 665
07:01:48 -1 1004 144 0 SO 0 96.6 659
07:04:50 -1 1005 149 0 SO 0 96.6 647
07:07:50 -1 1003 154 0 SO 0 96.6 639
07:10:48 -1 1004 158 0 SO 0 96.6 641
07:13:48 -1 1004 162 0 SO 0 96.6 644
07:16:48 -1 1004 164 0 SO 0 96.6 639
07:19:48 0 1004 167 0 SO 0 96.6 644
07:22:48 0 1003 171 0 SO 0 96.6 644
07:25:49 0 1005 176 0 SO 0 96.6 647
07:28:55 0 1004 180 0 SO 0 96.6 662
07:31:49 0 1004 182 0 SO 0 96.6 677
07:34:48 0 1004 184 0 SO 0 96.6 697
07:37:49 0 1005 188 0 SO 0 96.6 697
07:40:47 0 1004 190 0 SO 0 96.6 706
07:43:49 0 1004 188 0 SO 0 96.6 715
07:46:49 0 1004 185 0 SO 0 96.6 708
07:49:47 1 1004 184 1 NO 0 96.6 705
07:52:49 1 1004 186 0 SO 0 96.6 705
07:55:47 1 1003 187 0 NO 0 96.6 715
07:58:47 1 1004 188 0 NO 0 96.6 715
08:01:47 1 1004 190 0 N 0 96.6 715
08:04:48 1 1003 192 0 N 0 96.6 724
08:07:48 1 1004 192 0 N 0 96.6 729
08:10:46 1 1004 193 0 N 0 96.6 731
08:13:47 1 1003 194 1 N 0 96.6 729
08:16:48 1 1004 193 0 NW 0 96.6 727
08:19:48 1 1004 193 0 SO 0 96.6 723
08:22:48 2 1004 193 0 SO 0 96.6 726
08:25:48 2 1004 196 0 SO 0 96.6 727
08:28:51 2 1005 198 0 NW 0 96.6 729
08:31:48 2 1004 198 0 N 0 96.6 729
08:34:48 2 1004 197 0 N 0 96.6 724
08:37:49 2 1003 197 0 N 0 96.6 727
08:40:47 2 1003 198 0 N 0 96.6 727
08:43:48 2 1004 197 0 N 0 96.6 726
08:46:49 2 1005 197 0 NW 0 96.6 718
08:49:50 3 1004 199 0 NW 0 96.6 714
08:52:49 3 1004 201 3 NW 0 96.6 718
08:55:49 3 1005 204 2 NW 0 96.6 725
08:58:50 4 1004 205 3 NO 0 96.6 726
09:01:49 4 1004 206 2 W 0 96.5 727
09:04:49 4 1004 206 2 W 0 96.1 720
09:07:50 4 1004 207 2 W 0 96.1 727
09:10:48 5 1004 209 1 SW 0 96.3 744
09:13:49 5 1004 210 3 W 0 96.4 753
09:16:48 5 1003 210 5 S 0 96.5 754
09:19:48 5 1004 211 3 SW 0 96.3 756
09:22:50 6 1005 212 1 W 0 95.2 753
09:25:48 6 1004 211 2 SW 0 94.6 749
09:28:48 6 1004 210 4 W 0 93.1 744
09:31:47 6 1004 208 0 SO 0 92.5 741
09:34:51 6 1004 206 0 SO 0 92.5 752
09:37:50 6 1004 207 0 SW 0 90.4 761
09:40:48 6 1004 207 0 S 0 90 764
09:43:47 7 1004 207 1 S 0 89.8 764
09:46:48 7 1004 207 7 SW 0 89.9 774
09:49:51 7 1003 207 6 SW 0 87.9 768
09:52:47 7 1004 208 6 W 0 87.2 767
09:55:49 7 1004 209 10 SW 0 87.3 764
09:58:49 7 1004 209 13 SW 0 86.2 764
10:01:46 7 1003 210 2 N 0 84.3 775
10:04:50 8 1004 211 4 W 0 84.5 782
10:07:51 8 1004 211 11 SW 0 83.8 785
10:10:49 8 1004 212 7 NW 0 82.8 785
10:13:48 8 1004 214 0 SO 0 82 786
10:16:47 8 1005 216 3 SW 0 80.8 788
10:19:49 8 1004 217 0 S 0 80.6 790
10:22:49 8 1004 218 5 W 0 78.2 793
10:25:47 8 1003 218 1 S 0 77.9 796
10:28:48 9 1004 218 1 SW 0 79.1 799
10:31:46 9 1004 217 0 S 0 78.4 793
10:34:47 9 1005 217 2 SW 0 76.9 803
10:37:49 9 1004 218 2 SW 0 75.5 808
10:40:47 9 1004 217 2 W 0 74.5 811
10:43:47 9 1004 217 0 S 0 74.4 817
10:46:46 9 1004 217 1 S 0 74.4 820
10:49:48 9 1004 218 0 SO 0 74.1 826
10:52:49 9 1004 219 2 NW 0 75.2 828
10:55:46 9 1004 219 0 SO 0 74.5 833
10:58:49 9 1003 220 0 O 0 73.6 832
11:01:44 9 1004 220 1 O 0 73.4 834
11:04:49 10 1004 221 4 NW 0 73.3 826
11:07:48 10 1004 222 5 W 0 72.4 827
11:10:46 10 1004 222 4 0 70.8 832
11:13:48 10 1004 222 0 SW 0 71 833
11:16:49 10 1004 222 3 SW 0 70.8 838
11:19:51 10 1003 221 5 W 0 67 839
11:22:50 10 1005 220 9 NW 0 66.9 831
11:25:50 10 1004 219 3 NW 0 64.3 826
11:28:51 10 1003 219 3 NW 0 62.8 825
11:31:47 10 1004 219 1 S 0 67.9 821
11:34:48 10 1004 218 10 N 0 67.9 821
11:37:47 10 1004 217 0 N 0 65 820
11:40:48 10 1003 217 3 W 0 66.4 825
11:43:49 10 1004 217 3 NW 0 64.9 822
11:46:47 10 1005 216 1 NO 0 59.7 824
11:49:50 10 1003 216 1 N 0 59.2 823
11:52:52 10 1005 216 6 SW 0 58.6 829
11:55:50 10 1004 216 1 NW 0 60.8 830
11:58:47 10 1004 217 3 W 0 61.2 829
12:01:48 11 1004 218 0 W 0 63.7 831
12:04:47 11 1004 215 3 W 0 63.9 834
12:07:50 11 1003 213 8 NW 0 61.8 823
12:10:49 11 1004 210 4 NW 0 61.5 820
12:13:51 11 1003 211 3 NW 0 61.3 829
12:16:47 11 1004 215 2 W 0 61 834
12:19:50 12 1003 217 3 SO 0 57.9 832
12:22:49 13 1003 219 1 W 0 50.8 829
12:25:48 13 1003 218 0 S 0 50.6 827
12:28:49 13 1003 189 7 W 0 48.5 775
12:31:48 13 1004 216 1 S 0 50.3 650
12:34:50 14 1003 217 3 SW 0 48.3 668
12:37:47 14 1004 218 1 SO 0 47.8 706
12:40:48 15 1004 221 0 S 0 47.1 719
12:43:51 15 1003 222 6 NW 0 47.4 719
12:46:50 15 1003 221 2 SW 0 46.8 709
12:49:48 15 1003 220 1 SO 0 47.6 703
12:52:47 16 1003 220 6 W 0 44.5 694
12:55:50 15 1003 220 6 NO 0 41.5 679
12:58:47 15 1003 219 7 W 0 45.9 671
13:01:48 15 1002 220 0 O 0 45.8 667
13:04:46 16 1003 221 0 O 0 44.5 677
13:07:32 14 1003 223 1 O 0 40 676
13:10:49 16 1002 225 1 SW 0 39.7 673
13:13:48 15 1003 226 10 W 0 36 665
13:16:47 14 1003 222 2 NO 0 42.6 677
13:19:49 14 1003 219 6 SO 0 43.1 678
13:22:48 14 1004 220 8 W 0 43.7 677
13:25:48 14 1002 224 2 NW 0 44.6 679
13:28:48 14 1003 224 5 W 0 44.8 688
13:31:46 14 1003 225 3 N 0 43.4 685
13:34:48 15 1003 226 13 W 0 41.9 682
13:37:48 15 1002 226 10 W 0 37.8 683
13:40:47 15 1002 224 3 S 0 42.9 688
13:43:49 16 1003 225 2 S 0 39.1 699
13:46:47 16 1003 227 2 W 0 37.4 703
13:49:49 17 1003 227 1 O 0 39.6 708
13:52:47 17 1002 228 2 N 0 35.3 705
13:55:46 17 1003 229 4 SW 0 34.8 731
13:58:48 17 1002 231 7 N 0 35.1 738
14:01:46 16 1002 232 7 W 0 41.3 741
14:04:47 16 1002 232 4 O 0 41.2 741
14:07:47 16 1002 233 4 N 0 39.8 738
14:10:49 15 1002 231 0 SW 0 39.8 735
14:13:47 16 1002 226 7 NW 0 41 741
14:16:47 16 1002 232 0 W 0 39.6 741
14:19:48 16 1002 232 3 SW 0 37.2 741
14:22:48 16 1002 234 7 N 0 36.3 742
14:25:49 15 1002 235 1 NW 0 35.7 743
14:28:48 14 1002 236 3 NW 0 37.3 757
14:31:32 14 1002 238 3 NO 0 40 758
14:34:47 15 1002 241 1 W 0 41.7 762
14:37:32 14 1002 240 3 NW 0 40 758
14:40:49 16 1002 226 0 SW 0 38.3 759
14:43:48 14 1002 238 5 W 0 37.3 761
14:46:46 14 1002 240 1 N 0 40.1 764
14:49:48 14 1002 243 1 W 0 42.7 764
14:52:48 15 1002 244 2 S 0 43.3 758
14:55:46 15 1002 244 7 NW 0 41.3 756
14:58:48 15 1002 244 8 NW 0 39.1 767
15:01:30 14 1002 244 1 S 0 40 774
15:04:46 16 1002 245 0 S 0 41.3 777
15:07:49 16 1002 245 0 NO 0 40.9 787
15:10:48 17 1002 245 0 NW 0 39.2 791
15:13:48 17 1002 245 1 NO 0 37.9 796
15:16:47 17 1002 245 3 W 0 38.4 794
15:19:48 17 1002 245 0 SW 0 35.2 793
15:22:48 17 1002 245 1 S 0 35.2 796
15:25:50 18 1002 245 2 SO 0 33.4 805
15:28:48 18 1002 245 2 W 0 33 812
15:31:49 18 1002 246 3 SW 0 33.8 810
15:34:48 17 1002 246 7 NW 0 32.9 805
15:37:47 16 1002 246 5 W 0 34.3 806
15:40:49 15 1002 244 11 NO 0 37.2 808
15:43:47 15 1002 246 5 O 0 37.1 801
15:46:50 15 1002 246 1 NW 0 36.4 797
15:49:48 14 1002 246 0 S 0 37.7 799
15:52:47 15 1002 246 4 NW 0 39.5 794
15:55:50 15 1002 246 6 NW 0 38.5 787
15:58:49 16 1002 247 1 NW 0 39.2 789
16:01:50 16 1002 247 9 NW 0 36.4 795
16:04:47 16 1002 246 6 W 0 36.3 800
16:07:35 15 1002 246 1 SW 0 40 806
16:10:49 16 1002 247 0 SO 0 39.6 814
16:13:48 17 1002 246 8 S 0 37.7 823
16:16:50 17 1002 247 2 S 0 35.7 822
16:19:49 18 1002 247 0 SO 0 34.8 818
16:22:49 18 1002 247 0 NW 0 35.4 824
16:25:47 18 1002 247 6 S 0 34.8 823
16:28:49 18 1002 247 3 N 0 33.2 833
16:31:51 17 1002 247 3 O 0 32.2 829
16:34:50 16 1002 247 4 NW 0 32.5 821
16:37:48 16 1002 247 2 SW 0 34.1 840
16:40:49 17 1002 247 1 S 0 33.8 846
16:43:49 17 1002 247 3 SW 0 33.6 852
16:46:48 17 1002 225 3 SW 0 32.8 808
16:49:50 17 1002 224 0 SW 0 34.1 524
16:52:48 17 1003 224 3 NW 0 35.3 469
16:55:47 17 1001 223 4 SW 0 34.6 468
16:58:48 17 1002 222 1 SO 0 34.8 469
17:01:50 16 1002 221 1 NW 0 34.2 463
17:04:46 16 1002 221 3 S 0 34.4 454
17:07:48 17 1002 220 0 W 0 35.5 442
17:10:48 17 1004 220 4 S 0 34 425
17:13:47 18 1002 219 4 W 0 32.5 419
17:16:46 17 1002 219 1 NO 0 31.2 413
17:19:46 16 1002 218 4 S 0 34.9 422
17:22:47 17 1002 218 1 S 0 35.6 425
17:25:47 17 1002 217 7 S 0 33.1 433
17:28:49 18 1002 217 1 NW 0 32.8 424
17:31:47 17 1001 247 2 W 0 33.7 419
17:34:47 18 1002 247 0 S 0 34.6 422
17:37:47 18 1002 247 9 NW 0 34.4 431
17:40:46 17 1001 247 3 N 0 33.8 442
17:43:48 17 1002 247 2 NO 0 33.8 451
17:46:50 16 1002 247 11 NW 0 32.5 457
17:49:46 16 1002 247 0 N 0 33.2 462
17:52:48 16 1001 247 5 NW 0 33.7 475
17:55:48 16 1002 247 0 S 0 34.5 478
17:58:47 16 1002 246 1 S 0 34.7 489
18:01:48 16 1002 246 2 SO 0 34.4 498
18:04:47 16 1001 245 1 O 0 33.7 510
18:07:50 16 1001 245 4 NO 0 34.4 515
18:10:47 15 1001 246 1 W 0 35.6 527
18:13:46 15 1001 246 3 O 0 36.6 551
18:16:48 15 1002 245 2 N 0 35.5 551
18:19:46 15 1001 245 0 N 0 35.4 543
18:22:48 15 1000 245 0 SO 0 36.3 548
18:25:48 16 1001 245 3 NW 0 35.4 548
18:28:47 15 1001 245 0 O 0 37.1 553
18:31:46 15 1001 244 3 N 0 37.1 565
18:34:48 15 1001 242 0 SO 0 36 574
18:37:48 15 1002 237 1 N 0 37.5 577
18:40:49 15 1001 235 0 SO 0 38 580
18:43:49 15 1002 236 0 S 0 38.4 583
18:46:48 14 1001 236 3 NW 0 38.9 588
18:49:52 14 1001 230 0 SW 0 37.9 588
18:52:46 13 1001 229 1 N 0 38.9 595
18:55:48 13 1001 238 0 O 0 38.6 598
18:58:47 13 1001 233 1 N 0 39.4 601
19:01:51 13 1002 230 1 W 0 40.7 604
19:04:50 12 1001 222 0 NO 0 40.9 615
19:07:48 12 1001 217 0 NO 0 41 622
19:10:48 12 1001 149 0 N 0 41.2 584
19:13:48 12 1001 213 1 NO 0 41.8 448
19:16:47 12 1002 221 0 SO 0 42.4 451
19:19:46 12 1001 228 0 O 0 42.8 486
19:22:49 11 1001 220 0 O 0 45.2 504
19:25:47 11 1002 226 0 O 0 45.5 515
19:28:48 11 1002 215 0 O 0 46.8 522
19:31:48 11 1002 215 0 O 0 46.6 508
19:34:46 11 1002 194 0 O 0 47.2 517
19:37:46 10 1001 187 0 O 0 47.6 515
19:40:50 10 1002 181 0 O 0 48.4 507
19:43:49 10 1002 176 0 O 0 49 502
19:46:49 10 1002 168 0 O 0 49.2 496
19:49:46 10 1001 159 0 O 0 49.9 504
19:52:48 10 1001 150 0 O 0 50.8 500
19:55:46 9 1001 139 0 O 0 51.3 504
19:58:48 9 1002 128 0 O 0 52.1 504
20:01:48 9 1001 116 0 O 0 52.8 504
20:04:48 9 1001 101 0 O 0 53 510
20:07:48 9 1001 85 0 O 0 53.7 504
20:10:47 8 1001 71 0 O 0 54.6 504
20:13:46 8 1001 59 0 O 0 55.5 507
20:16:47 8 1001 47 0 O 0 56.1 513
20:19:47 8 1002 36 0 O 0 57.3 522
20:22:49 8 1002 26 0 O 0 58.7 525
20:25:47 8 1002 18 0 O 0 59 536
20:28:47 7 1001 13 0 O 0 59.6 536
20:31:48 7 1002 8 0 O 0 61.2 543
20:34:46 7 1001 5 0 O 0 61.2 548
20:37:46 7 1002 3 0 O 0 61.4 548
20:40:46 7 1002 0 0 O 0 61.7 551
20:43:46 6 1002 0 0 O 0 62.4 557
20:46:46 6 1002 0 0 O 0 63.3 568
20:49:47 6 1002 0 0 O 0 63.8 583
20:52:45 6 1002 0 0 O 0 64.6 578
20:55:46 6 1001 0 0 O 0 66.1 583
20:58:45 6 1002 0 0 O 0 67.3 586
21:01:46 6 1002 0 0 O 0 68.2 583
21:04:46 6 1002 0 0 O 0 67.3 588
21:07:49 5 1002 0 0 O 0 67.7 595
21:10:45 5 1002 0 0 O 0 68.2 603
21:13:47 5 1002 0 0 O 0 68.1 607
21:16:46 5 1002 0 0 O 0 69.1 606
21:19:45 5 1001 0 0 O 0 69.9 615
21:22:45 5 1002 0 0 O 0 70.5 614
21:25:48 5 1002 0 0 O 0 71.2 613
21:28:46 5 1002 0 0 O 0 71.2 616
21:31:46 5 1002 0 0 O 0 70.8 616
21:34:49 4 1002 0 0 O 0 70.7 625
21:37:47 4 1002 0 0 O 0 70.9 627
21:40:45 4 1002 0 0 O 0 71.4 630
21:43:48 4 1002 0 0 O 0 71.8 637
21:46:46 4 1002 0 0 O 0 72.1 644
21:49:48 4 1002 0 0 O 0 72.5 653
21:52:45 4 1002 0 0 O 0 73.6 668
21:55:44 4 1001 0 0 O 0 73.6 666
21:58:44 4 1002 0 0 O 0 74.3 665
22:01:46 4 1002 0 0 O 0 74.5 662
22:04:46 4 1002 0 0 O 0 74.5 670
22:07:46 4 1002 0 0 O 0 74.8 674
22:10:46 4 1002 0 0 O 0 75.5 668
22:13:46 3 1002 0 0 O 0 75.3 668
22:16:45 3 1002 0 0 N 0 76.4 674
22:19:45 3 1002 0 0 N 0 77 682
22:22:46 3 1002 0 0 N 0 77.2 690
22:25:45 3 1002 0 0 N 0 76.6 681
22:28:47 3 1002 0 0 N 0 76.6 685
22:31:46 3 1002 0 0 N 0 77 679
22:34:46 3 1002 0 0 N 0 77.3 680
22:37:48 3 1002 0 0 N 0 77.2 683
22:40:47 3 1001 0 0 N 0 77.2 689
22:43:48 3 1002 0 0 N 0 78.5 694
22:46:46 3 1002 0 0 N 0 79.5 697
22:49:47 3 1002 0 0 N 0 81.2 704
22:52:45 3 1002 0 0 N 0 80.3 697
22:55:47 3 1002 0 0 N 0 79.3 702
22:58:47 3 1002 0 0 N 0 79.3 701
23:01:48 3 1002 0 0 N 0 79.8 712
23:04:46 3 1002 0 0 N 0 79.8 709
23:07:45 2 1002 0 0 N 0 80 715
23:10:47 2 1002 0 0 N 0 80.7 706
23:13:47 2 1002 0 0 N 0 80.6 702
23:16:47 2 1002 0 0 N 0 80.8 703
23:19:47 2 1002 0 0 N 0 81.2 697
23:22:44 2 1002 0 0 N 0 81.7 705
23:25:46 2 1002 0 0 N 0 81.1 710
23:28:46 2 1002 0 0 N 0 81.1 715
23:31:45 2 1002 0 0 N 0 81.3 719
23:34:47 2 1001 0 0 N 0 81.7 725
23:37:45 2 1002 0 0 N 0 82.1 732
23:40:46 2 1002 0 0 N 0 82 726
23:43:47 2 1002 0 0 N 0 82 733
23:46:47 2 1002 0 0 N 0 82.4 733
23:49:45 2 1002 0 0 N 0 82.3 732
23:52:47 2 1002 0 0 N 0 82.3 728
23:55:46 2 1002 0 0 N 0 82.2 736
23:58:46 2 1002 0 0 N 0 82.4 727

Letzte Änderung : 22-Jul-2022
Copyright Jens Köhler, Wolfsburg, Obere Dorfstraße 10d